Weather History for KMOD - December, 2013

Change the Weather History Date:

Thursday, December 19, 2013

  Actual Average Record
Temperature  
Mean Temperature 50 °F -  
Max Temperature 60 °F 55 °F 65 °F (1950)
Min Temperature 39 °F 39 °F 24 °F (1965)
Degree Days  
Heating Degree Days 15 18  
Month to date heating degree days 395 317  
Since 1 July heating degree days 766 678  
Cooling Degree Days 0 0  
Month to date cooling degree days 0 0  
Year to date cooling degree days 1718 1699  
Moisture  
Dew Point 33 °F    
Average Humidity 64    
Maximum Humidity 92    
Minimum Humidity 35    
Precipitation  
Precipitation 0.00 in 0.07 in 0.69 in (1952)
Month to date precipitation 0.25 1.14  
Year to date precipitation 4.70 12.21  
Since 1 July precipitation 1.49 3.46  
Snow  
Snow 0.00 in - - ()
Month to date snowfall 0.0  
Since 1 July snowfall 0.0  
Snow Depth -    
Sea Level Pressure  
Sea Level Pressure 29.78 in    
Wind  
Wind Speed 7 mph (NW)    
Max Wind Speed 39 mph    
Max Gust Speed 94 mph    
Visibility 9 miles    
Events      
T = Trace of Precipitation, MM = Missing Value Source: NWS Daily Summary

Daily Weather History Graph

Daily Weather History Graph

Search for Another Location

Airport or City:

Trip Planner

Search our weather history database for the weather conditions in past years. The results will help you decide how hot, cold, wet, or windy it might be!

Date:

Astronomy

Dec. 19, 2013 Rise Set
Actual Time 7:14 AM PST 4:48 PM PST
Civil Twilight 6:44 AM PST 5:17 PM PST
Nautical Twilight 6:11 AM PST 5:50 PM PST
Astronomical Twilight 5:40 AM PST 6:22 PM PST
Moon 7:16 PM PST (12/19) 8:38 AM PST (12/19)
Length of Visible Light 10h 32m
Length of Day
9h 33m
Waning Gibbous, 95% of the Moon is Illuminated
Dec 19
Waning Gibbous
Dec 25
Last Quarter
Jan 1
New
Jan 7
First Quarter
Jan 15
Full

Hourly Weather History & Observations

Time (PST) Temp. Windchill Dew Point Humidity Pressure Visibility Wind Dir Wind Speed Gust Speed Precip Events Conditions
12:53 AM 43.0 °F 41.3 °F 39.9 °F 89% 29.72 in 8.0 mi ESE 3.5 mph - N/A   Clear
1:53 AM 44.1 °F 41.5 °F 41.0 °F 89% 29.71 in 7.0 mi ESE 4.6 mph - N/A   Clear
2:53 AM 45.0 °F - 41.0 °F 86% 29.70 in 8.0 mi Calm Calm - N/A   Clear
3:53 AM 46.0 °F - 42.1 °F 86% 29.70 in 9.0 mi Calm Calm - N/A   Clear
4:53 AM 42.1 °F - 39.9 °F 92% 29.69 in 7.0 mi Calm Calm - N/A   Clear
5:53 AM 39.0 °F 36.8 °F 37.9 °F 96% 29.70 in 5.0 mi SE 3.5 mph - N/A   Clear
6:53 AM 44.1 °F 42.5 °F 39.9 °F 85% 29.73 in 9.0 mi NW 3.5 mph - N/A   Mostly Cloudy
7:53 AM 46.9 °F - 39.0 °F 74% 29.74 in 10.0 mi Calm Calm - N/A   Mostly Cloudy
8:07 AM 46.4 °F 37.9 °F 37.4 °F 71% 29.75 in 10.0 mi East 25.3 mph 31.1 mph N/A   Overcast
8:53 AM 46.9 °F - 37.0 °F 68% 29.76 in 10.0 mi West 5.8 mph - N/A   Mostly Cloudy
9:09 AM 46.4 °F 43.5 °F 35.6 °F 66% 29.77 in 10.0 mi West 5.8 mph - N/A   Mostly Cloudy
9:53 AM 48.0 °F - 37.9 °F 68% 29.81 in 10.0 mi NW 9.2 mph - N/A   Overcast
10:32 AM 48.2 °F - 41.0 °F 76% 29.80 in 9.0 mi WNW 5.8 mph - N/A   Scattered Clouds
10:53 AM 48.9 °F - 39.9 °F 71% 29.81 in 9.0 mi West 10.4 mph - N/A   Mostly Cloudy
11:53 AM 50.0 °F - 41.0 °F 71% 29.81 in 8.0 mi NW 10.4 mph - N/A   Scattered Clouds
12:53 PM 55.0 °F - 41.0 °F 59% 29.78 in 9.0 mi WNW 10.4 mph - N/A   Clear
1:53 PM 57.9 °F - 37.0 °F 46% 29.77 in 10.0 mi NNW 15.0 mph - N/A   Clear
2:53 PM 60.1 °F - 32.0 °F 35% 29.77 in 10.0 mi NNW 10.4 mph - N/A   Clear
3:53 PM 60.1 °F - 27.0 °F 28% 29.78 in 10.0 mi NNW 13.8 mph - N/A   Clear
4:53 PM 55.9 °F - 24.1 °F 29% 29.80 in 10.0 mi NW 13.8 mph - N/A   Clear
5:53 PM 53.1 °F - 23.0 °F 31% 29.81 in 10.0 mi WNW 16.1 mph - N/A   Clear
6:53 PM 51.1 °F - 23.0 °F 33% 29.83 in 10.0 mi WNW 12.7 mph - N/A   Clear
7:53 PM 48.9 °F - 21.9 °F 35% 29.83 in 10.0 mi West 15.0 mph - N/A   Clear
8:53 PM 48.0 °F - 19.9 °F 33% 29.85 in 10.0 mi WNW 12.7 mph - N/A   Clear
9:53 PM 46.0 °F 41.4 °F 21.0 °F 37% 29.87 in 10.0 mi West 9.2 mph - N/A   Clear
10:53 PM 46.0 °F 40.6 °F 21.0 °F 37% 29.88 in 10.0 mi WNW 11.5 mph - N/A   Clear
11:53 PM 44.1 °F 37.7 °F 19.9 °F 38% 29.91 in 10.0 mi WNW 12.7 mph - N/A   Clear